Location: Nelson
(41.2830°S, 173.2830°E)
Time: 17:15:53
(UTC+13:00)

Nimbus 7 Rocket - Pass Details

Date: 24 January 2019
Orbit: 922 x 965 km, 99.4° (Epoch: 15 October)

Event Time Altitude Azimuth Distance (km) Brightness Sun altitude
Exits shadow 22:40:05 25° 35° (NE) 1,781 5.3 -16.7°
Maximum altitude 22:43:33 64° 109° (ESE) 1,043 4.5 -17.1°
Drops below altitude 10° 22:49:31 10° 188° (S) 2,697 7.6 -17.9°
Sets 22:52:00 0° 191° (S) 3,655 8.5 -18.2°
